カタログに戻る

OPS 4467 B

運用中ナビゲーションPO
NORAD 813·PAYLOAD·🇺🇸 United States

打ち上げ Jun 18, 1964 から Vandenberg Space Force Base

Loading…

次のパス (今後24時間)

TLE

最新Source: Space-Track

元期: Sep 14, 2026, 09:39 UTC

1 00813U 64031B   26257.40248035  .00000014  00000-0  29887-4 0  9997
2 00813  99.8405  60.5988 0004526 290.1837  69.8851 14.23729753227621

AllMySatでOPS 4467 Bをリアルタイム追跡

Download on the App Store